Location: Kumla
(59.1265°N, 15.1401°E)
Time: 15:49:23
(UTC+01:00)

A-11 Canister half - Pass Details

Date: 04 December 2023
Orbit: 1512 x 1687 km, 47.2° (Epoch: 25 February)

Event Time Altitude Azimuth Distance (km) Brightness Sun altitude
Rises 01:17:06 0° 224° (SW) 4,759 - -49.9°
Reaches altitude 10° 01:20:30 10° 215° (SW) 3,802 - -49.6°
Maximum altitude 01:28:49 34° 156° (SSE) 2,464 - -49.0°
Exits shadow 01:34:34 19° 108° (ESE) 3,223 10.7 -48.6°
Drops below altitude 10° 01:37:22 10° 97° (E) 3,921 11.3 -48.4°
Sets 01:40:55 0° 89° (E) 4,926 12.0 -48.1°
